FW3157 Weather Reports


time (UTC)temp
F
wind
direction
speed
knots
gust
knots
rain 1hr
in
rain 24hr
in
rain mn
in
humidity
%
barometer
mb
20260509233439 62 117 0.0 0.9 0.00 0.01 0.00 90 1015.4
20260509232933 62 117 0.0 0.9 0.00 0.01 0.00 90 1015.4
20260509232427 62 117 0.0 0.9 0.00 0.01 0.00 90 1015.5
20260509231921 63 117 0.0 0.9 0.00 0.01 0.00 90 1015.6
20260509231415 63 117 0.0 0.9 0.00 0.01 0.00 90 1015.6
20260509230909 63 117 0.0 0.9 0.00 0.01 0.00 90 1015.7
20260509230403 63 117 0.0 0.9 0.00 0.01 0.00 90 1015.7
20260509225858 64 117 0.9 1.7 0.00 0.01 0.00 90 1015.7
20260509225351 64 117 0.9 1.7 0.00 0.01 0.00 90 1015.7
20260509224846 64 138 0.9 0.9 0.00 0.01 0.00 90 1015.7
20260509224339 64 137 0.0 0.9 0.00 0.01 0.00 90 1015.7
20260509223833 64 137 0.0 0.9 0.00 0.01 0.00 90 1015.7
20260509223326 64 137 0.0 0.9 0.00 0.01 0.00 90 1015.8
20260509222821 64 137 0.0 0.9 0.00 0.01 0.00 90 1015.8
20260509222321 64 137 0.0 0.9 0.00 0.01 0.00 90 1015.8
20260509221821 64 138 0.0 0.9 0.00 0.01 0.00 91 1015.7
20260509221321 63 138 0.0 0.9 0.00 0.01 0.00 90 1015.7
20260509220821 63 138 0.0 0.9 0.00 0.01 0.00 91 1015.7
20260509220544 63 138 0.9 0.9 0.00 0.01 0.00 91 1015.8
20260509215820 63 137 0.0 0.9 0.00 0.01 0.00 91 1015.7
20260509215319 63 137 0.0 0.9 0.00 0.01 0.00 91 1015.8
20260509214824 63 137 0.0 0.9 0.00 0.01 0.00 91 1015.9
20260509214540 63 137 0.0 0.9 0.00 0.01 0.00 90 1015.9
20260509213819 63 138 0.0 0.9 0.00 0.01 0.00 91 1015.9
20260509213317 63 137 0.0 0.9 0.00 0.01 0.00 91 1016.0
20260509212816 63 138 0.0 0.9 0.00 0.01 0.00 91 1015.9
20260509212313 63 137 0.0 0.9 0.00 0.01 0.00 91 1016.0
20260509211814 64 137 0.0 0.9 0.00 0.01 0.00 91 1015.9
20260509211536 64 137 0.0 0.9 0.00 0.01 0.00 91 1015.9
20260509210813 64 138 0.0 0.9 0.00 0.01 0.00 91 1015.9
20260509210313 64 137 0.0 1.7 0.00 0.01 0.00 91 1015.9
20260509205813 64 138 0.0 1.7 0.00 0.01 0.01 91 1015.9
20260509205307 64 138 0.0 1.7 0.00 0.01 0.01 91 1015.8
20260509204802 64 149 0.0 1.7 0.00 0.01 0.01 91 1015.7
20260509204254 64 207 0.0 1.7 0.00 0.01 0.01 91 1015.6
20260509203749 64 207 0.9 2.6 0.00 0.01 0.01 91 1015.7
20260509203243 64 259 0.9 2.6 0.00 0.01 0.01 91 1015.7
20260509202737 65 208 0.0 1.7 0.00 0.01 0.01 91 1015.6
20260509202231 65 208 0.9 2.6 0.00 0.01 0.01 91 1015.6
20260509201725 65 208 0.9 2.6 0.00 0.01 0.01 90 1015.6
20260509201218 65 205 0.9 3.5 0.00 0.01 0.01 90 1015.6
20260509200712 65 207 0.9 3.5 0.00 0.01 0.01 90 1015.6
20260509200207 64 224 0.0 0.9 0.00 0.01 0.01 90 1015.5
20260509195700 64 224 0.0 0.0 0.00 0.01 0.01 89 1015.4
20260509195155 65 224 0.0 0.0 0.00 0.01 0.01 89 1015.4
20260509194649 65 224 0.0 0.0 0.00 0.01 0.01 88 1015.3
20260509194413 65 224 0.0 0.0 0.00 0.01 0.01 88 1015.4
20260509193637 65 224 0.0 0.9 0.00 0.01 0.01 88 1015.4
20260509193131 65 224 0.0 0.9 0.00 0.01 0.01 88 1015.5
20260509192625 65 224 0.0 0.9 0.00 0.01 0.01 88 1015.4
20260509192119 65 224 0.0 0.9 0.00 0.01 0.01 88 1015.4
20260509191613 65 224 0.0 0.9 0.00 0.01 0.01 88 1015.3
20260509191107 65 224 0.0 0.9 0.00 0.01 0.01 88 1015.4
20260509190601 65 224 0.0 0.9 0.00 0.01 0.01 89 1015.3
20260509190322 65 224 0.0 0.9 0.00 0.01 0.01 88 1015.3
20260509185552 65 224 0.0 0.9 0.00 0.01 0.01 88 1015.3
20260509185043 65 224 0.0 0.9 0.00 0.01 0.01 87 1015.3
20260509184536 66 224 0.0 2.6 0.00 0.01 0.01 87 1015.2
20260509184031 66 224 0.0 2.6 0.00 0.01 0.01 87 1015.2
20260509183525 66 213 0.9 2.6 0.00 0.01 0.01 86 1015.2
20260509183506 66 213 0.9 2.6 0.00 0.01 0.01 85 1015.1
20260509182512 66 219 0.0 2.6 0.00 0.01 0.01 83 1015.1
20260509182007 66 208 0.0 1.7 0.00 0.01 0.01 81 1015.0
20260509181503 67 208 0.0 2.6 0.00 0.01 0.01 81 1014.9
20260509181441 67 208 0.0 2.6 0.00 0.01 0.01 80 1014.7
20260509180449 67 246 0.0 1.7 0.00 0.01 0.01 80 1014.7
20260509175942 67 245 0.0 0.9 0.00 0.01 0.01 79 1014.7
20260509175437 67 246 0.0 1.7 0.00 0.01 0.01 79 1014.5
20260509174930 67 245 0.9 2.6 0.00 0.01 0.01 79 1014.4
20260509174425 67 245 0.9 2.6 0.00 0.01 0.01 80 1014.3
20260509174144 67 98 0.0 0.9 0.00 0.01 0.01 80 1014.3
20260509173413 68 98 0.0 0.9 0.00 0.01 0.01 80 1014.2
20260509172906 68 98 0.0 0.9 0.00 0.01 0.01 80 1014.1
20260509172401 68 98 0.0 0.9 0.00 0.01 0.01 80 1014.1
20260509171855 68 98 0.0 0.9 0.00 0.01 0.01 80 1014.2
20260509171607 68 98 0.0 1.7 0.00 0.01 0.01 80 1014.1
20260509170843 68 98 0.0 1.7 0.00 0.01 0.01 80 1014.1
20260509170555 68 98 0.0 1.7 0.00 0.01 0.01 80 1014.1
20260509165831 68 98 0.9 2.6 0.00 0.01 0.01 79 1014.2
20260509165331 68 145 0.0 2.6 0.00 0.01 0.01 80 1014.2
20260509165053 68 147 0.9 2.6 0.00 0.01 0.01 80 1014.2
20260509164331 68 148 0.9 3.5 0.00 0.01 0.01 81 1014.1
20260509164049 68 184 0.9 3.5 0.00 0.01 0.01 81 1014.1
20260509163327 68 254 0.9 3.5 0.00 0.01 0.01 82 1014.1
20260509162827 68 162 0.9 3.5 0.00 0.01 0.01 82 1014.1
20260509162551 68 207 0.9 2.6 0.00 0.01 0.01 82 1014.1
20260509161825 68 234 0.9 2.6 0.00 0.01 0.01 83 1014.0
20260509161325 68 214 0.9 2.6 0.00 0.01 0.01 83 1014.1
20260509160824 68 144 0.9 2.6 0.00 0.01 0.01 83 1014.0
20260509160324 68 203 0.9 2.6 0.00 0.01 0.01 84 1014.1
20260509160044 68 211 0.9 3.5 0.00 0.01 0.01 84 1014.2
20260509155808 68 208 0.9 4.3 0.00 0.01 0.01 84 1014.1
20260509154823 68 191 0.9 4.3 0.00 0.01 0.01 84 1014.1
20260509154321 68 205 1.7 6.1 0.00 0.01 0.01 84 1014.1
20260509153821 68 222 1.7 6.1 0.00 0.01 0.01 84 1014.1
20260509153319 68 210 1.7 6.1 0.00 0.01 0.01 84 1014.0
20260509152819 68 214 2.6 7.8 0.00 0.01 0.01 84 1014.0
20260509152312 68 227 2.6 7.8 0.00 0.01 0.01 84 1014.0
20260509151807 68 238 2.6 7.0 0.00 0.01 0.01 84 1014.0
20260509151523 68 268 2.6 7.0 0.00 0.01 0.01 84 1013.9
20260509150805 68 207 1.7 7.0 0.00 0.01 0.01 83 1013.9
20260509150305 69 187 2.6 6.1 0.00 0.01 0.01 83 1013.9
20260509145805 69 219 2.6 6.1 0.00 0.01 0.01 83 1013.8
20260509145306 69 258 1.7 6.1 0.00 0.01 0.01 84 1013.8
20260509144804 69 213 2.6 8.7 0.00 0.01 0.01 83 1013.8
20260509144305 68 247 3.5 8.7 0.00 0.01 0.01 84 1013.8
20260509143804 69 234 3.5 7.8 0.00 0.01 0.01 83 1013.8
20260509143526 69 219 3.5 9.6 0.00 0.01 0.01 83 1013.8
20260509142805 69 236 4.3 9.6 0.00 0.01 0.01 83 1013.8
20260509142307 69 207 2.6 7.8 0.00 0.01 0.01 82 1013.8
20260509141801 69 254 2.6 7.0 0.00 0.01 0.01 82 1013.8
20260509141301 69 214 3.5 8.7 0.00 0.01 0.01 82 1013.8
20260509140801 69 215 3.5 8.7 0.00 0.01 0.01 82 1013.8
20260509140301 69 191 3.5 8.7 0.00 0.01 0.01 81 1013.9
20260509135801 69 237 2.6 7.0 0.00 0.01 0.01 80 1013.8
20260509135301 69 245 1.7 7.8 0.00 0.01 0.01 79 1013.8
20260509134800 69 287 2.6 7.8 0.00 0.01 0.01 79 1013.8
20260509134301 69 214 2.6 7.8 0.00 0.01 0.01 77 1013.9
20260509133800 69 250 2.6 8.7 0.00 0.01 0.01 77 1013.9
20260509133300 69 236 3.5 8.7 0.00 0.01 0.01 76 1013.9
20260509132801 69 230 2.6 7.0 0.00 0.01 0.01 76 1013.9
20260509132520 69 235 3.5 8.7 0.00 0.01 0.01 75 1013.9
20260509131801 69 270 3.5 8.7 0.00 0.01 0.01 74 1013.9
20260509131516 69 237 2.6 7.8 0.00 0.01 0.01 73 1013.9
20260509130801 69 208 3.5 8.7 0.00 0.01 0.01 74 1013.8
20260509130300 69 238 3.5 8.7 0.00 0.01 0.01 73 1013.9
20260509125801 70 242 3.5 8.7 0.00 0.01 0.01 71 1014.0
20260509125752 70 260 2.6 7.8 0.00 0.01 0.01 71 1014.0
20260509124754 70 252 1.7 6.1 0.00 0.01 0.01 72 1013.9
20260509124248 70 223 2.6 7.8 0.00 0.01 0.01 72 1013.9
20260509123741 70 201 3.5 7.8 0.00 0.01 0.01 72 1014.0
20260509123236 70 221 3.5 7.8 0.00 0.01 0.01 71 1014.1
20260509122730 71 219 2.6 7.0 0.00 0.01 0.01 70 1014.1
20260509122224 71 213 2.6 7.0 0.00 0.01 0.01 71 1014.1
20260509121717 71 227 1.7 5.2 0.00 0.01 0.01 71 1014.1
20260509121211 71 266 2.6 5.2 0.00 0.01 0.01 72 1014.0
20260509120704 70 207 2.6 6.1 0.00 0.01 0.01 73 1014.0
20260509120158 70 258 2.6 6.1 0.00 0.01 0.01 71 1014.0
20260509115651 71 229 1.7 6.1 0.00 0.01 0.01 70 1014.0
20260509115412 72 267 1.7 3.5 0.00 0.01 0.01 70 1014.0
20260509114640 70 254 1.7 5.2 0.00 0.01 0.01 73 1014.1
20260509114134 70 257 2.6 6.1 0.00 0.01 0.01 71 1014.1
20260509113847 69 233 3.5 6.1 0.00 0.02 0.01 73 1014.1
20260509113121 68 259 3.5 6.1 0.00 0.02 0.01 72 1014.2
20260509112616 68 246 2.6 5.2 0.00 0.04 0.01 73 1014.1
20260509112110 68 245 3.5 5.2 0.00 0.05 0.01 73 1014.1
20260509111604 68 229 2.6 4.3 0.00 0.06 0.01 73 1014.2
20260509111059 68 252 2.6 6.1 0.00 0.06 0.01 74 1014.2
20260509110551 68 275 3.5 7.0 0.00 0.06 0.01 74 1014.2
20260509110311 68 254 3.5 7.0 0.00 0.08 0.01 74 1014.3
20260509105805 68 297 3.5 6.1 0.00 0.09 0.01 74 1014.4
20260509105033 67 253 3.5 6.1 0.00 0.10 0.01 73 1014.4
20260509104750 68 245 3.5 6.1 0.00 0.11 0.01 72 1014.4
20260509104022 68 280 4.3 6.1 0.00 0.12 0.01 73 1014.4
20260509103520 68 275 3.5 6.1 0.00 0.13 0.01 72 1014.5
20260509103009 69 292 2.6 5.2 0.00 0.13 0.01 70 1014.6
20260509102504 69 284 1.7 4.3 0.00 0.13 0.01 68 1014.6
20260509101958 69 219 1.7 3.5 0.00 0.13 0.01 68 1014.6
20260509101709 69 255 1.7 4.3 0.00 0.14 0.01 69 1014.7
20260509100945 68 211 1.7 4.3 0.00 0.14 0.01 70 1014.8
20260509100440 67 221 2.6 4.3 0.00 0.14 0.01 71 1014.9
20260509100152 67 259 2.6 6.1 0.00 0.15 0.01 70 1014.9
20260509095429 67 262 2.6 6.1 0.00 0.15 0.01 69 1014.9
20260509094922 67 271 2.6 5.2 0.00 0.16 0.01 69 1015.0
20260509094416 67 215 2.6 5.2 0.00 0.16 0.01 73 1015.0
20260509093910 66 259 2.6 5.2 0.00 0.17 0.01 72 1015.1
20260509093404 66 278 2.6 5.2 0.00 0.17 0.01 74 1015.2
20260509092858 66 305 2.6 5.2 0.00 0.17 0.01 73 1015.1
20260509092618 66 323 2.6 5.2 0.00 0.17 0.01 75 1015.1
20260509091845 66 252 2.6 6.1 0.00 0.17 0.01 78 1015.1
20260509091340 65 234 2.6 6.1 0.00 0.17 0.01 78 1015.2
20260509091051 65 246 2.6 6.1 0.00 0.17 0.01 76 1015.2
20260509090328 65 302 2.6 6.1 0.00 0.17 0.01 77 1015.2
20260509085822 65 259 2.6 4.3 0.00 0.17 0.01 80 1015.2
20260509085315 65 280 2.6 4.3 0.00 0.17 0.01 79 1015.3
20260509084810 65 277 3.5 6.1 0.00 0.17 0.01 82 1015.3
20260509084304 64 295 3.5 6.1 0.00 0.17 0.01 80 1015.3
20260509084028 65 298 2.6 4.3 0.00 0.17 0.01 81 1015.3
20260509083251 65 271 2.6 4.3 0.00 0.17 0.01 83 1015.4
20260509082746 64 282 1.7 4.3 0.00 0.17 0.01 85 1015.4
20260509082240 64 265 1.7 3.5 0.00 0.17 0.01 87 1015.4
20260509081733 63 323 1.7 3.5 0.00 0.17 0.01 86 1015.4
20260509081228 63 284 1.7 3.5 0.00 0.17 0.01 87 1015.4
20260509080722 63 309 1.7 4.3 0.00 0.17 0.01 87 1015.5
20260509080216 63 297 1.7 4.3 0.00 0.17 0.01 88 1015.5
20260509075709 63 279 2.6 4.3 0.00 0.17 0.01 88 1015.6
20260509075425 63 281 2.6 4.3 0.00 0.17 0.01 88 1015.5
20260509074657 63 324 2.6 4.3 0.00 0.17 0.01 89 1015.5
20260509074411 62 299 0.9 4.3 0.00 0.17 0.01 89 1015.5
20260509073645 62 271 0.9 2.6 0.00 0.17 0.01 91 1015.5
20260509073140 61 35 1.7 2.6 0.00 0.17 0.01 91 1015.6
20260509072634 61 23 1.7 4.3 0.00 0.17 0.01 92 1015.5
20260509072128 61 278 2.6 4.3 0.00 0.17 0.01 91 1015.6
20260509071622 60 307 1.7 4.3 0.00 0.17 0.01 92 1015.7
20260509071116 61 307 1.7 4.3 0.00 0.17 0.01 92 1015.6
20260509070611 60 283 1.7 4.3 0.00 0.17 0.01 92 1015.7
20260509070326 60 277 2.6 4.3 0.00 0.17 0.01 93 1015.7
20260509065558 60 257 2.6 4.3 0.00 0.17 0.01 92 1015.8
20260509065052 60 249 2.6 4.3 0.00 0.17 0.01 92 1015.8
20260509064546 60 264 1.7 2.6 0.00 0.17 0.01 92 1015.8
20260509064040 60 255 1.7 2.6 0.00 0.17 0.01 92 1015.7
20260509063751 60 248 1.7 3.5 0.00 0.17 0.01 92 1015.7
20260509063028 60 229 1.7 3.5 0.00 0.17 0.01 91 1015.7
20260509062521 61 266 0.9 3.5 0.00 0.17 0.01 90 1015.7
20260509062016 61 89 0.0 2.6 0.00 0.17 0.01 91 1015.7
20260509061509 61 89 0.0 0.9 0.00 0.17 0.01 92 1015.6
20260509061228 61 89 0.9 1.7 0.01 0.17 0.01 92 1015.6
20260509060459 60 89 0.9 1.7 0.01 0.17 0.01 92 1015.7
20260509055952 60 89 0.9 2.6 0.01 0.17 0.01 92 1015.7
20260509055452 60 89 1.7 3.5 0.01 0.17 0.01 92 1015.6
20260509054950 60 89 1.7 4.3 0.01 0.17 0.01 92 1015.6
20260509054450 60 106 1.7 4.3 0.01 0.17 0.01 92 1015.5
20260509053950 60 87 1.7 5.2 0.01 0.17 0.01 92 1015.5
20260509053448 60 94 1.7 5.2 0.01 0.17 0.01 92 1015.3
20260509052946 60 132 2.6 5.2 0.01 0.17 0.01 92 1015.5
20260509052446 60 95 2.6 5.2 0.01 0.17 0.01 92 1015.4
20260509051946 60 91 0.9 4.3 0.01 0.17 0.01 92 1015.4
20260509051446 60 99 0.9 4.3 0.01 0.17 0.01 92 1015.4
20260509050946 60 131 0.9 1.7 0.00 0.17 0.00 92 1015.5
20260509050446 60 116 0.0 1.7 0.00 0.17 0.00 93 1015.4
20260509045946 60 142 0.9 3.5 0.00 0.17 0.00 93 1015.3
20260509045445 60 142 1.7 3.5 0.00 0.17 0.00 93 1015.2
20260509044946 60 148 1.7 3.5 0.00 0.17 0.00 93 1015.4
20260509044446 60 140 1.7 3.5 0.00 0.17 0.00 93 1015.3
20260509044208 60 131 0.9 3.5 0.00 0.17 0.00 93 1015.2
20260509043446 60 202 0.9 2.6 0.00 0.17 0.00 93 1015.1
20260509042945 60 300 0.0 0.9 0.00 0.17 0.00 93 1015.0
20260509042445 60 300 0.0 0.0 0.00 0.17 0.00 94 1015.0
20260509041946 60 300 0.0 0.0 0.00 0.17 0.00 94 1015.0
20260509041446 60 300 0.0 0.0 0.00 0.17 0.00 94 1015.0
20260509040945 60 300 0.0 0.0 0.00 0.17 0.00 94 1015.0
20260509040445 60 300 0.0 0.9 0.00 0.17 0.00 94 1015.0
20260509035946 60 300 0.0 0.9 0.00 0.17 0.00 94 1015.0
20260509035446 60 300 0.0 0.9 0.00 0.17 0.00 94 1015.1
20260509034945 60 300 0.0 0.9 0.00 0.17 0.00 94 1015.1
20260509034445 60 300 0.0 0.9 0.00 0.17 0.00 94 1015.1
20260509033946 60 300 0.0 1.7 0.00 0.17 0.00 94 1015.1
20260509033445 60 300 0.0 1.7 0.00 0.17 0.00 94 1015.1
20260509032945 60 301 0.0 0.9 0.00 0.17 0.00 94 1015.1
20260509032445 60 301 0.0 1.7 0.00 0.17 0.00 94 1015.1
20260509031945 60 301 0.0 1.7 0.00 0.17 0.00 94 1015.1
20260509031446 60 301 0.0 0.9 0.00 0.17 0.00 94 1015.0
20260509031427 60 301 0.0 0.9 0.00 0.17 0.00 94 1015.0
20260509030439 60 301 0.0 0.9 0.00 0.17 0.00 94 1015.1
20260509030156 60 301 0.0 0.9 0.00 0.17 0.00 94 1015.1
20260509025427 60 301 0.0 0.9 0.00 0.17 0.00 94 1015.1
20260509024920 60 301 0.0 0.9 0.00 0.17 0.00 94 1015.1
20260509024415 60 301 0.0 0.9 0.00 0.17 0.00 94 1015.1
20260509023908 60 301 0.0 0.9 0.00 0.17 0.00 94 1015.0
20260509023403 60 301 0.0 0.9 0.00 0.17 0.00 94 1015.0
20260509022857 60 301 0.0 0.9 0.00 0.17 0.00 94 1015.0
20260509022350 60 301 0.0 0.9 0.00 0.17 0.00 94 1015.1
20260509021845 60 301 0.0 0.9 0.00 0.17 0.00 94 1015.2
20260509021339 60 301 0.0 0.9 0.00 0.17 0.00 94 1015.2
20260509020833 60 301 0.0 0.9 0.00 0.17 0.00 94 1015.2
20260509020327 60 301 0.0 0.9 0.00 0.17 0.00 94 1015.2
20260509015820 60 301 0.0 0.9 0.00 0.17 0.00 94 1015.2
20260509015315 60 301 0.0 0.9 0.00 0.17 0.00 94 1015.2
20260509014809 60 301 0.0 0.9 0.00 0.17 0.00 94 1015.1
20260509014305 60 301 0.0 0.9 0.00 0.17 0.00 94 1015.1
20260509014019 60 301 0.0 0.0 0.00 0.17 0.00 94 1015.2
20260509013251 60 301 0.0 0.0 0.00 0.17 0.00 94 1015.2
20260509012744 60 301 0.0 0.9 0.00 0.17 0.00 94 1015.2
20260509012238 60 301 0.0 0.9 0.00 0.17 0.00 94 1015.3
20260509011733 60 301 0.9 1.7 0.00 0.17 0.00 94 1015.3
20260509011228 60 301 0.9 1.7 0.00 0.17 0.00 94 1015.4
20260509010721 60 301 0.9 0.9 0.00 0.17 0.00 94 1015.4
20260509010215 60 301 0.9 1.7 0.00 0.17 0.00 94 1015.4
20260509005709 60 301 0.9 1.7 0.00 0.17 0.00 94 1015.4
20260509005652 60 301 0.9 1.7 0.00 0.17 0.00 94 1015.4
20260509004657 60 301 0.9 1.7 0.00 0.17 0.00 94 1015.4
20260509004151 60 301 0.0 1.7 0.00 0.17 0.00 94 1015.4
20260509003645 60 301 0.9 2.6 0.00 0.17 0.00 94 1015.4
20260509003139 60 301 1.7 2.6 0.00 0.17 0.00 94 1015.5
20260509002635 60 301 1.7 2.6 0.00 0.17 0.00 94 1015.6
20260509002127 60 301 1.7 2.6 0.00 0.17 0.00 94 1015.7
20260509001621 60 302 1.7 3.5 0.00 0.17 0.00 94 1015.7
20260509001334 60 301 1.7 3.5 0.00 0.17 0.00 94 1015.7
20260509000609 60 300 0.9 2.6 0.00 0.17 0.00 94 1015.8
20260509000325 60 287 0.9 2.6 0.00 0.17 0.00 94 1015.8
20260508235556 60 257 0.9 1.7 0.00 0.17 0.00 94 1015.9
20260508235051 60 257 0.9 1.7 0.00 0.17 0.00 94 1015.9
20260508234545 60 257 1.7 2.6 0.00 0.17 0.00 94 1016.0
20260508234519 60 257 0.9 2.6 0.00 0.17 0.00 94 1016.1
20260508233753 60 250 0.9 1.7 0.00 0.17 0.00 94 1016.0